Back to catalog

CZ-6A DEB

AlivePO
NORAD 54489·DEBRIS·🇨🇳 China

Launched Nov 11, 2022 from Taiyuan Satellite Launch Center

Loading…

Next Passes (next 24 hours)

TLE

FreshSource: Space-Track

Epoch: Sep 13, 2026, 03:35 UTC

1 54489U 22151HR  26256.14973138  .00005284  00000-0  91043-3 0  9997
2 54489  98.6232 319.9277 0070036  33.3990 327.1602 14.67381787202370

Track CZ-6A DEB in real time with AllMySat

Download on the App Store